Location: Newark
(48.2308°N, 120.8549°W)
Time: 14:04:06
(UTC+00:00)

Transit 2A Rocket - Pass Details

Date: 30 May 2020
Orbit: 584 x 919 km, 66.7° (Epoch: 07 July)

Event Time Altitude Azimuth Distance (km) Brightness Sun altitude
Rises 14:49:26 0° 324° (NW) 3,484 8.1 24.1°
Reaches altitude 10° 14:51:54 10° 326° (NW) 2,572 7.5 24.5°
Maximum altitude 14:57:58 83° 55° (NE) 929 6.0 25.5°
Drops below altitude 10° 15:04:07 10° 143° (SE) 2,602 8.3 26.5°
Sets 15:06:37 0° 144° (SE) 3,527 8.8 26.9°
